Regional Weather Roundup
Issued by NWS

Home | Current Version | Previous Version | Text Only | Print | Product List | Glossary Off
Versions: 1 2 3 4 5 6 7 8 9 10 11 12 13 14 15 16 17 18 19 20 21 22 23 24 25 26 27 28 29 30 31 32 33 34 35 36 37 38 39 40 41 42 43 44 45 46 47 48 49 50

000
ASUS43 KLOT 050208
RWRIL

ILLINOIS REGIONAL WEATHER ROUNDUP
NATIONAL WEATHER SERVICE CHICAGO/ROMEOVILLE IL
900 PM CDT FRI SEP 04 2015

NOTE: "FAIR" INDICATES FEW OR NO CLOUDS BELOW 12,000 FEET WITH NO
SIGNIFICANT WEATHER AND/OR OBSTRUCTIONS TO VISIBILITY.

* THESE STATIONS ARE NOT UNDER NWS QUALITY CONTROL. THEY ALSO MAY NOT
  REPORT WEATHER SUCH AS PRECIPITATION OR FOG.

ILZ001-002-007-009-015-016-024-050300-
NORTHWEST ILLINOIS

CITY           SKY/WX    TMP DP  RH WIND       PRES   REMARKS
MOLINE         CLEAR     76  71  85 E3        29.99R
STERLING*      CLEAR     79  73  83 E3        29.99R HX  82
SAVANNA*       PTCLDY    78  72  82 E5        30.00R HX  80
$$

ILZ003-004-008-010-011-017-018-050300-
NORTH CENTRAL ILLINOIS

CITY           SKY/WX    TMP DP  RH WIND       PRES   REMARKS
ROCKFORD       PTCLDY    77  70  79 E9        30.04R
FREEPORT*      PTCLDY    74  72  91 SE3       30.04R
ROCHELLE*      CLEAR     75  72  88 E8        30.03R
DE KALB*       CLEAR     73  69  87 E6        30.05R
PERU*          CLEAR     84  67  57 CALM      30.02R HX  87
$$

ILZ005-006-012>014-019>023-050300-
NORTHEAST ILLINOIS

CITY           SKY/WX    TMP DP  RH WIND       PRES   REMARKS
CHICAGO-OHARE  PTCLDY    72  66  81 E6        30.04R
CHICAGO-MIDWAY PTCLDY    74  67  78 E9        30.05R
AURORA         CLEAR     73  68  84 NE6       30.04R
LANSING*       CLEAR     72  68  87 NE6       30.04R
JOLIET*        CLEAR     75  69  80 E9        30.03R
WAUKEGAN       CLOUDY    68  66  93 E5        30.06R
DUPAGE AIRPORT CLEAR     73  66  78 E7        30.04R
KANKAKEE*      PTCLDY    73  69  88 E6        30.05R
WHEELING       PTCLDY    70  67  90 NE5       30.07R
MORRIS*        PTCLDY    76  71  85 CALM      30.01R
ROMEOVILLE*    DRIZZLE   73  65  77 E8        30.04R
NORTHERLY ISL    N/A     71  67  87 NE6         N/A
$$

LMZ740>746-050300-
SOUTHERN LAKE MICHIGAN

STATION/POSITION SKY/WX   TEMP    WIND        PRES    VSBY  WAVE
                          AIR SEA DIR/SP/G                  HT/PER
                          (F)     (DEG/KT/KT) (MB)    (MI)  (FT/S)
SOUTHERN BUOY              67 71   50/  6/  8   N/A
WILMETTE HARBOR            71 71  250/  6/  8   N/A           1/ 3
HARRISON CRIB              71      70/  5/  7   N/A
BURNHAM HARBOR             71      60/  5/  9   N/A
CALUMET HARBOR             72      50/  7/  9   N/A
BURNS HARBOR               72      70/ 12/ 13 1017.3S
MICHIGAN CITY              71      40/  9/  9   N/A
MICHIGAN CITY 6N           72 74   80/  4/  6   N/A           1/ 4
ST. JOSEPH                 71 76   50/  4/  6   N/A           1
$$

ILZ025>027-034>036-040-047-049-050-058-095>099-050300-
WEST-CENTRAL ILLINOIS

CITY           SKY/WX    TMP DP  RH WIND       PRES   REMARKS
QUINCY         CLEAR     81  69  67 S6        30.00R HX  84
GALESBURG*     CLEAR     74  71  88 CALM      30.00R
MACOMB*        CLEAR     76  68  77 CALM      30.02R
JACKSONVILLE*  CLEAR     79  71  75 S3        30.01R HX  82
PITTSFIELD*    CLEAR     79  71  76 S3        30.02R HX  82
$$

ILZ028>032-037-038-041>044-048-051>054-059>061-050300-
CENTRAL ILLINOIS

CITY           SKY/WX    TMP DP  RH WIND       PRES   REMARKS
PONTIAC        PTCLDY    75  68  77 SE6       30.04R
BLOOMINGTON    MOCLDY    73  69  87 SE10      30.06R
DECATUR        PTCLDY    77  67  71 SE3       30.04R
PEORIA         CLEAR     83  71  67 CALM      30.01R HX  87
LACON*         MOCLDY    79  71  76 CALM      30.00R HX  82
LINCOLN*       PTCLDY    82  67  61 E6        30.02R HX  84
SPRINGFIELD    CLEAR     79  68  69 CALM      30.01R HX  81
TAYLORVILLE    CLEAR     75  70  83 CALM      30.02R
$$

ILZ033-039-045-046-055>057-062-063-050300-
EAST-CENTRAL ILLINOIS

CITY           SKY/WX    TMP DP  RH WIND       PRES   REMARKS
CHAMPAIGN      TSTM      71  66  84 VRB5G17   30.09R
RANTOUL*       CLOUDY    73  67  80 S5        30.06F
MATTOON        MOCLDY    80  68  66 N5        30.04R HX  83
PARIS*         TSTM      70  65  82 NE22G28   30.12R
$$

ILZ079-100>102-050300-
SOUTHWEST ILLINOIS

CITY           SKY/WX    TMP DP  RH WIND       PRES   REMARKS
ALTON          CLEAR     75  72  88 CALM      30.01R
BELLEVILLE     CLEAR     78  75  89 CALM      30.00R HX  81
CAHOKIA*       CLEAR     81  71  71 S3        30.00R HX  85
SPARTA*        CLEAR     78  73  82 CALM      30.03R HX  81
$$

ILZ064>066-069>071-074>076-080>082-084>086-088>090-092>094-050300-
SOUTH-CENTRAL ILLINOIS

CITY           SKY/WX    TMP DP  RH WIND       PRES   REMARKS
CARBONDALE     CLEAR     75  72  90 CALM      30.01R
CAIRO*         CLEAR     74  74 100 CALM      30.01R
EFFINGHAM*     CLEAR     76  70  83 CALM      30.05R
MARION         CLEAR     77  72  83 CALM      30.02S
MT. VERNON     CLEAR     73  68  83 CALM      30.03R
CENTRALIA*     CLEAR     76  74  95 CALM      30.02R
SALEM*         CLEAR     76  71  84 CALM      30.03R
METROPOLIS*    CLEAR     74  73  95 CALM      30.02R FOG
$$

ILZ067-068-072-073-078-083-087-091-050300-
SOUTHEAST ILLINOIS

CITY           SKY/WX    TMP DP  RH WIND       PRES   REMARKS
LAWRENCEVILLE  PTCLDY    76  69  79 E6        30.04R
FLORA*         PTCLDY    76  69  79 CALM      30.03R
FAIRFIELD*     CLEAR     75  71  86 CALM      30.02R
HARRISBURG*    CLEAR     74  71  88 CALM      30.02R
ROBINSON*      PTCLDY    73  71  91 CALM      30.05R
CARMI*         CLEAR     74  71  91 CALM      30.02R
$$

ABBREVIATIONS USED IN REMARKS
   TC - TEMPERATURE IN CELSIUS
  WCI - WIND CHILL INDEX
   HX - HEAT INDEX
  VSB - VISIBILITY
$$



USA.gov is the U.S. government's official web portal to all federal, state and local government web resources and services.